Simultaneous Nadir Overpasses (SNOs) Predictions

Prediction of SNOs between FY3D and AQUA Satellite Orbit:

Table of predicted SNOs for the next 14.0 days since TLE Epoch: 8/15/2020
Index Date (FY3D) Time (FY3D) Lat,Lon (FY3D) SZA (FY3D ) Date (AQUA) Time (AQUA) Lat,Lon (AQUA) SZA (AQUA ) Distance(km) Time Diff (sec)
1 08/16/2020 10:27:03 60.47,-118.27 100.33 08/16/2020 10:27:30 60.47,-118.27 100.30 0.11 27
2 08/16/2020 11:16:15 -65.69, 53.57 84.94 08/16/2020 11:15:27 -65.70, 53.61 84.90 1.79 48
3 08/19/2020 02:43:44 59.39, -3.12 102.17 08/19/2020 02:44:17 59.40, -3.10 102.12 0.99 33
4 08/19/2020 03:32:35 -65.80, 169.59 84.25 08/19/2020 03:31:54 -65.80, 169.57 84.20 0.76 41
5 08/21/2020 19:00:25 58.37, 112.12 103.97 08/21/2020 19:01:04 58.38, 112.14 103.91 1.62 39
6 08/21/2020 19:49:16 -64.80, -75.50 82.44 08/21/2020 19:48:41 -64.81, -75.47 82.40 1.19 35
7 08/24/2020 11:16:41 58.76,-131.72 104.39 08/24/2020 11:17:27 58.75,-131.75 104.35 2.01 46
8 08/24/2020 12:05:35 -65.01, 40.62 81.83 08/24/2020 12:05:07 -65.01, 40.59 81.78 1.77 28
9 08/27/2020 03:33:20 57.84, -16.40 106.11 08/27/2020 03:34:12 57.84, -16.42 106.05 1.77 52
10 08/27/2020 04:22:15 -64.07, 155.63 80.04 08/27/2020 04:21:53 -64.07, 155.63 80.01 0.34 22
